AirNav   Textron
 
 873 users online  

61A Camden Municipal Airport
Camden, Alabama, USA

GOING TO CAMDEN?


FAA INFORMATION EFFECTIVE 09 NOVEMBER 2017

Location

FAA Identifier: 61A
Lat/Long: 31-58-47.1000N / 087-20-20.8000W
31-58.785000N / 087-20.346667W
31.9797500 / -87.3391111
(estimated)
Elevation: 142.1 ft. / 43.3 m (surveyed)
Variation: 03W (2020)
From city: 3 miles SW of CAMDEN, AL
Time zone: UTC -6 (UTC -5 during Daylight Saving Time)
Zip code: 36726

Airport Operations

Airport use: Open to the public
Activation date: 01/1964
Control tower: no
ARTCC: ATLANTA CENTER
FSS: ANNISTON FLIGHT SERVICE STATION
NOTAMs facility: ANB (NOTAM-D service available)
Attendance: UNATNDD
Wind indicator: lighted
Segmented circle: no
Lights: ACTVT MIRL RY 18/36 - CTAF.
Beacon: white-green (lighted land airport)
Operates sunset to sunrise.

Airport Communications

CTAF: 122.9
  • APCH/DEP SVC PRVDD BY ATLANTA ARTCC (ZTL) ON 120.55/270.25 (MONTGOMERY RCAG).

Nearby radio navigation aids

VOR radial/distance  VOR name  Freq  Var
MVCr357/31.2MONROEVILLE VORTAC116.8004E

Airport Services

Parking: tiedowns
Airframe service: NONE
Powerplant service: NONE
Bottled oxygen: NONE
Bulk oxygen: NONE

Runway Information

Runway 18/36

Dimensions: 4303 x 80 ft. / 1312 x 24 m
Surface: asphalt, in good condition
Weight bearing capacity: 
Single wheel: 27.0
Runway edge lights: medium intensity
RUNWAY 18  RUNWAY 36
Latitude: 31-59.139663N31-58.430107N
Longitude: 087-20.352702W087-20.341228W
Elevation: 142.7 ft.142.3 ft.
Traffic pattern: leftleft
Runway heading: 182 magnetic, 179 true002 magnetic, 359 true
Markings: nonprecision, in fair conditionnonprecision, in fair condition
Visual slope indicator: 2-box VASI on left (3.00 degrees glide path)
RY 18 VASI OTS INDEFLY.
2-box VASI on left (2.75 degrees glide path)
RY 36 VASI OTS INDEFLY.
Touchdown point: yes, no lightsyes, no lights

Airport Ownership and Management from official FAA records

Ownership: Publicly-owned
Owner: CITY OF CAMDEN
108 WATER STREET
CAMDEN, AL 36726
Phone 334-682-4603
Manager: MAX BAGGETT JR, MAYOR
108 WATER STREET
CAMDEN, AL 36726
Phone 334-682-4603

Airport Operational Statistics

Aircraft based on the field: 6
Single engine airplanes: 5
Multi engine airplanes: 1
    
Aircraft operations: avg 62/week *
90% transient general aviation
10% local general aviation
* for 12-month period ending 01 September 2017

Additional Remarks

-6 FT DITCH 172 FT FROM THLD RY 18 ACROSS ENTIRE APCH.

Instrument Procedures

NOTE: All procedures below are presented as PDF files. If you need a reader for these files, you should download the free Adobe Reader.

NOT FOR NAVIGATION. Please procure official charts for flight.
FAA instrument procedures published for use between 9 November 2017 at 0901Z and 7 December 2017 at 0900Z.

 
IAPs - Instrument Approach Procedures
RNAV (GPS) RWY 18   download (172KB)
RNAV (GPS) RWY 36   download (167KB)
NOTE: Special Take-Off Minimums/Departure Procedures apply   download (305KB)

Other nearby airports with instrument procedures:

KSEM - Craig Field Airport (28 nm NE)
KMVC - Monroe County Aeroplex Airport (31 nm S)
A08 - Vaiden Field Airport (32 nm N)
KGZH - Middleton Field Airport (37 nm SE)
KPRN - Mac Crenshaw Memorial Airport (38 nm E)
 
Loc | Ops | Rwys | IFR | FBO | Links
Com | Nav | Svcs | Stats | Notes


 
Area around 61A (Camden Municipal Airport)
 
Road maps at: MapQuest Bing Google
 
Aerial photo
WARNING: Photo may not be current or correct
Aerial photo of 61A (Camden Municipal Airport)
Do you have a better or more recent aerial photo of Camden Municipal Airport that you would like to share? If so, please send us your photo.

 
Sectional chart

 
Airport distance calculator
Flying to Camden Municipal Airport? Find the distance to fly.

From to 61A

Sunrise and sunset
Times for 23-Nov-2017
 Local
(UTC-6)
 Zulu
(UTC)
Morning civil twilight06:0012:00
Sunrise06:2612:26
Sunset16:4522:45
Evening civil twilight17:1223:12

Current date and time
Zulu (UTC)  23-Nov-2017 17:12:07
Local (UTC-6)  23-Nov-2017 11:12:07
 
METAR
KSEM 
28nm NE 
231655Z AUTO 01004KT 10SM CLR 12/00 A3005 RMK AO2 TSNO
KA08 
32nm N 
231655Z AUTO 30011KT 10SM CLR 11/01 A3007 RMK AO2 T01090006
KGZH 
37nm SE 
231653Z AUTO 34008KT 10SM CLR 14/02 A3003 RMK AO2 SLP168 T01440022
KPRN 
38nm E 
231656Z AUTO 34006KT 10SM CLR 14/01 A3001 RMK AO2 SLP162 T01440011
KDYA 
43nm NW 
231655Z AUTO 36006KT 10SM 10/M01 A3010 RMK AO2 T00961007
TAF
NOTAMs
Click for the latest NOTAMs
NOTAMs are issued by the DoD/FAA and will open in a separate window not controlled by AirNav.

 

 
 

Would you like to see your business listed on this page?

 If your business provides an interesting product or service to pilots, flight crews, aircraft, or users of the Camden Municipal Airport, you should consider listing it here.  To start the listing process, click on the button below
 
Add a business
 

Other Pages about Camden Municipal Airport

Update a link
 
Copyright © AirNav, LLC. All rights reserved. Privacy Policy  Contact